www.pogodaiklimat.ru

Погода и климат >> Архив погоды >> Мексика >> Guaymas


ПОГОДА в Guaymas

  • Прогноз погоды в Guaymas
  • Монитор погоды в Guaymas
  • Климат города

АРХИВ ПОГОДЫ в Guaymas

Время (UTC), дата Ветер
(напр.,м/с)
 
Видим.   Явления Облачность Т
(С)
Тd
(С)
f
(%)
Тe
(С)
Тes
(С)
Комфортность P
(гПа)
Po
(гПа)
Тmin
(С)
Tmax
(С)
R
(мм)
R24
(мм)
S
(см)
00 14.05 ЮЗ 4 н/о н/о +32.4 +15.1 35 +34 +34 очень
жарко
1010.4 1008.9 +18.1 +33.1
03 14.05 СЗ 1 н/о н/о +27.3 +10.6 35 +28 +28 жарко 1010.3 1008.8
06 14.05 С 2 н/о н/о +25.0 +9.0 36 +26 +26 жарко 1011.1 1009.5 +18.1 +33.1
09 14.05 З 3 н/о н/о +22.8 +8.7 41 +24 +24 комфорт 1010.3 1008.7
12 14.05 СЗ 2 н/о н/о +21.5 +10.9 51 +23 +23 комфорт 1010.5 1008.9 +21.5 +33.1
15 14.05 штиль 0 н/о н/о +28.0 +9.8 32 +28 +28 жарко 1012.0 1010.5
18 14.05 Ю 3 н/о н/о +33.7 +9.5 23 +33 +33 жарко 1012.3 1010.7 +20.9 +33.7
21 14.05 ЮЗ 5 н/о н/о +34.7 +9.4 21 +33 +33 жарко 1010.7 1009.2
00 15.05 ЮЗ 5 н/о н/о +33.5 +6.5 19 +32 +32 жарко 1009.1 1007.6 +20.9 +35.8
03 15.05 С 1 н/о н/о +27.9 +7.4 27 +27 +27 жарко 1009.6 1008.0
06 15.05 С 2 н/о н/о +25.4 +8.8 35 +26 +26 жарко 1011.0 1009.4 +20.9 +35.8
09 15.05 З 1 н/о н/о +23.0 +0.6 23 +22 +22 комфорт 1010.3 1008.8
12 15.05 З 2 н/о н/о +20.3 -0.4 25 +21 +21 комфорт 1010.6 1009.0 +19.7 +35.8
15 15.05 СЗ 2 н/о н/о +27.5 +3.7 22 +26 +26 жарко 1012.3 1010.8
18 15.05 ЮЗ 2 н/о н/о +37.0 +2.7 12 +34 +34 очень
жарко
1012.4 1010.9 +19.6 +37.6
00 16.05 ЮЗ 5 н/о н/о +35.8 +5.4 15 +33 +33 жарко 1008.1 1006.6 +19.6 +37.6
03 16.05 СЗ 4 н/о н/о +32.5 -1.5 11 +29 +29 жарко 1008.7 1007.2
06 16.05 СЗ 5 н/о н/о +30.1 +2.3 17 +28 +28 жарко 1009.1 1007.6 +19.6 +37.6
12 16.05 СЗ 3 н/о н/о +28.2 -4.2 12 +25 +25 комфорт 1008.8 1007.3 +27.9 +37.6
15 16.05 З 1 н/о н/о +33.2 -1.0 11 +30 +30 жарко 1010.3 1008.8
18 16.05 СЗ 4 н/о н/о +41.0 -3.7 6 +37 +37 очень
жарко
1009.5 1008.1 +23.7 +41.3
21 16.05 СЗ 4 н/о н/о +43.3 -0.2 7 +40 +40 очень
жарко
1008.2 1006.7
00 17.05 ЮЗ 5 н/о н/о +37.8 +7.3 16 +36 +36 очень
жарко
1007.3 1005.8 +23.7 +44.1
03 17.05 З 3 н/о н/о +33.9 +0.3 12 +31 +31 жарко 1007.9 1006.4
12 17.05 СЗ 3 н/о н/о +24.9 +4.4 27 +24 +24 комфорт 1009.0 1007.4 +24.6 +44.1
15 17.05 З 1 н/о н/о +30.7 +3.8 18 +28 +28 жарко 1010.6 1009.1
18 17.05 ЮЗ 2 н/о н/о +35.8 +4.6 14 +33 +33 жарко 1011.0 1009.5 +23.1 +36.6
21 17.05 ЮЗ 6 н/о н/о +35.9 +1.7 12 +33 +33 жарко 1009.6 1008.1
00 18.05 ЮЗ 5 н/о н/о +36.6 -2.3 8 +33 +33 жарко 1007.5 1006.0 +23.1 +37.2
03 18.05 СЗ 2 н/о н/о +30.3 -4.7 10 +27 +27 жарко 1008.0 1006.5
06 18.05 СЗ 2 н/о н/о +26.1 -2.9 15 +24 +24 комфорт 1008.7 1007.1 +23.1 +37.2
09 18.05 СЗ 2 н/о н/о +22.4 +3.4 29 +22 +22 комфорт 1008.4 1006.8
12 18.05 З 2 н/о н/о +21.0 +6.2 38 +23 +23 комфорт 1008.7 1007.1 +19.9 +37.2
15 18.05 З 1 н/о н/о +27.2 +9.3 32 +27 +27 жарко 1010.2 1008.7
18 18.05 ЮЗ 3 н/о н/о +30.7 +9.1 26 +30 +30 жарко 1010.4 1008.8 +19.2 +30.9
21 18.05 ЮЗ 5 н/о н/о +31.1 +8.8 25 +30 +30 жарко 1009.3 1007.7
00 19.05 ЮЗ 6 н/о н/о +29.4 +6.0 23 +28 +28 жарко 1008.1 1006.6 +19.2 +32.4
06 19.05 С 1 н/о н/о +21.0 +11.7 55 +24 +24 комфорт 1009.4 1007.8 +19.2 +32.4
09 19.05 С 1 н/о н/о +17.8 +7.5 51 +19 +19 1009.1 1007.5
12 19.05 С 3 н/о н/о +15.5 +7.4 58 +15 +15 1008.9 1007.3 +15.1 +32.4
15 19.05 СЗ 1 н/о н/о +26.0 +6.4 29 +26 +26 жарко 1010.2 1008.6
18 19.05 ЮЗ 3 н/о н/о +30.3 +6.3 22 +29 +29 жарко 1011.0 1009.4 +14.7 +31.0
21 19.05 ЮЗ 3 н/о н/о +32.8 +2.4 15 +30 +30 жарко 1009.5 1008.0
00 20.05 ЮЗ 3 н/о н/о +32.3 +2.3 15 +29 +29 жарко 1008.0 1006.4 +14.7 +34.0
03 20.05 ЮЗ 3 н/о н/о +26.8 +4.1 23 +26 +26 жарко 1008.2 1006.6
06 20.05 штиль 0 н/о н/о +20.9 +19 +19 1009.7 1008.1 +14.7 +34.0
09 20.05 С 2 н/о н/о +18.5 +3.5 37 +19 +19 1009.4 1007.8
12 20.05 С 2 н/о н/о +16.9 +6.7 51 +17 +17 1010.1 1008.4 +15.8 +34.0
15 20.05 СВ 1 н/о н/о +23.7 +10.3 43 +25 +25 комфорт 1011.7 1010.1
18 20.05 Ю 3 н/о н/о +29.4 +13.0 36 +31 +31 жарко 1012.0 1010.4 +15.7 +29.4

 

Местоположение метеостанции Guaymas (Мексика): широта 27.92 долгота -110.88 высота над уровнем моря 4 м.

В архиве по умолчанию представлена погода в Guaymas за последнюю неделю. Архивные данные за месяц целиком и за предыдущие месяцы, начиная с января 2011 года, Вы можете получить, выбрав интересующий диапазон дат из раскрывающегося списка и нажав кнопку "Ввод!".


*Определитесь, кто Вы:
робот инопланетянин человек

Внимание! Время в таблицах - всемирное. Для получения местного времени необходимо прибавить поправку, которая в Guaymas равна -7 ч.

Смотрите также архив погоды в соседних городах и на ближайших метеорологических станциях:

Погода в Empalme (Мексика) (18 км)
Погода в Ciudad Obregon (Мексика) (119 км)
Погода в Hermosillo la Magna (Мексика) (129 км)
Погода в Hermosillo (Мексика) (131 км)
Погода в Santa Rosalia (Мексика) (153 км)
Погода в Loreto (Мексика) (215 км)
Погода в Choix (Мексика) (296 км)
Погода в Pilares de Nacoz (Мексика) (296 км)
Погода в Temosachic (Мексика) (322 км)
Погода в Altar Son (Мексика) (324 км)

Пояснения к столбцам:

Ветер - указаны скорость ветра в м/с - средняя за 10 мин, порывы в срок и между сроками (в фигурных скобках) и направление, откуда дует ветер: С - северный, СВ - северо-восточный, В - восточный, ЮВ - юго-восточный, Ю - южный, ЮЗ - юго-западный, З - западный, СЗ - северо-западный.
Видимость - горизонтальная дальность видимости в метрах или километрах. При видимости от 1 до 10 км при отсутствии осадков обычно наблюдается дымка, при ухудшении видимости до 1 км и менее - туман. В сухую погоду видимость может ухудшаться дымом, пылью или мглою.
Явления - указаны атмосферные явления, наблюдавшиеся в срок или в последний час перед сроком; фигурными скобками обозначены явления, наблюдавшиеся между сроками (за 1-3 часа до срока); квадратными скобками обозначены град или гололедные отложения с указанием их диаметра в мм.
Облачность - указаны через наклонную черту общая и нижняя облачность в баллах и высота нижней границы облаков в метрах; квадратными скобками обозначены формы облаков: Ci - перистые, Cs - перисто-слоистые, Cc - перисто-кучевые, Ac - высококучевые, As - высокослоистые, Sc - слоисто-кучевые, Ns - слоисто-дождевые, Cu - кучевые, Cb - кучево-дождевые. Подробнее классификацию облаков см. в Атласе облаков (PDF).
T - Температура воздуха - температура, измеренная на высоте 2 м над землей.
Td - Температура точки росы - температура, при понижении до которой содержащийся в воздухе водяной пар достигнет насыщения.
f - Относительная влажность воздуха - влажноcть воздуха, измеренная на высоте 2 м над землей.
Te - Эффективная температура - температура, которую ощущает одетый по сезону человек в тени. Характеристика душности погоды. При расчете учитывается влияние влажности воздуха и скорости ветра на теплоощущения человека.
Tes - Эффективная температура на солнце - температура, которую ощущает человек, с поправкой на солнечный нагрев. Характеристика знойности погоды. Зависит от высоты солнца над горизонтом, облачности и скорости ветра. Ночью, в пасмурную погоду, а также при ветре 12 м/с и более поправка равна нулю.
P - Атмосферное давление - приведенное к уровню моря атмосферное давление.
Po - Атмосферное давление - измеренное на уровне метеостанции атмосферное давление.
Tmin - Минимальная температура - минимум температуры воздуха на высоте 2 м над землей.
Tmax - Максимальная температура - максимум температуры воздуха на высоте 2 м над землей.
R - Количество осадков - Количество выпавших осадков за период времени, мм. При наведении курсора мыши на число - период времени, за который выпало указанное количество осадков.
R24 - Количество осадков - Количество выпавших осадков за 24 часа, мм.
S - Снежный покров - Высота снежного покрова, см. При наведении курсора мыши на число - состояние снежного покрова и степень покрытия местности в баллах.